| time (UTC) | temp F | wind direction | speed MPH | gust MPH | rain 1hr in | rain 24hr in | rain mn in | humidity % | barometer mb |
| 20260507052220 | 72 | 26 | 4.0 | 9.0 | 0.00 | 0.00 | 0.00 | 86 | 1012.0 |
| 20260507051653 | 72 | 26 | 4.0 | 12.0 | 0.00 | 0.00 | 0.00 | 86 | 1012.2 |
| 20260507051127 | 72 | 359 | 5.0 | 12.0 | 0.00 | 0.00 | 0.00 | 86 | 1012.3 |
| 20260507050624 | 73 | 25 | 5.0 | 12.0 | 0.00 | 0.00 | 0.00 | 86 | 1012.3 |
| 20260507050056 | 73 | 10 | 5.0 | 12.0 | 0.00 | 0.00 | 0.00 | 86 | 1012.2 |
| 20260507045557 | 73 | 8 | 6.0 | 13.0 | 0.00 | 0.00 | 0.00 | 86 | 1012.0 |
| 20260507045308 | 73 | 343 | 6.0 | 13.0 | 0.00 | 0.00 | 0.00 | 85 | 1012.1 |
| 20260507044536 | 73 | 359 | 5.0 | 11.0 | 0.00 | 0.00 | 0.00 | 86 | 1012.0 |
| 20260507044035 | 73 | 34 | 5.0 | 11.0 | 0.00 | 0.00 | 0.00 | 86 | 1012.0 |
| 20260507043535 | 74 | 346 | 5.0 | 12.0 | 0.00 | 0.00 | 0.00 | 85 | 1012.0 |
| 20260507043034 | 74 | 19 | 5.0 | 12.0 | 0.00 | 0.00 | 0.00 | 85 | 1012.0 |
| 20260507042744 | 74 | 21 | 5.0 | 12.0 | 0.00 | 0.00 | 0.00 | 85 | 1012.1 |
| 20260507042014 | 74 | 359 | 4.0 | 13.0 | 0.00 | 0.00 | 0.00 | 86 | 1012.1 |
| 20260507041502 | 74 | 341 | 4.0 | 13.0 | 0.00 | 0.00 | 0.00 | 86 | 1012.1 |
| 20260507041002 | 74 | 322 | 6.0 | 13.0 | 0.00 | 0.00 | 0.00 | 86 | 1012.2 |
| 20260507040501 | 74 | 348 | 6.0 | 13.0 | 0.00 | 0.00 | 0.00 | 85 | 1012.2 |
| 20260507035958 | 74 | 334 | 5.0 | 12.0 | 0.00 | 0.00 | 0.00 | 85 | 1012.2 |
| 20260507035458 | 75 | 359 | 4.0 | 11.0 | 0.00 | 0.00 | 0.00 | 85 | 1012.0 |
| 20260507035246 | 75 | 350 | 5.0 | 12.0 | 0.00 | 0.00 | 0.00 | 85 | 1012.0 |
| 20260507034511 | 75 | 342 | 5.0 | 12.0 | 0.00 | 0.00 | 0.00 | 86 | 1011.8 |
| 20260507033953 | 75 | 326 | 3.0 | 11.0 | 0.00 | 0.00 | 0.00 | 87 | 1011.7 |
| 20260507033451 | 76 | 14 | 3.0 | 9.0 | 0.00 | 0.00 | 0.00 | 88 | 1011.6 |
| 20260507032951 | 76 | 341 | 4.0 | 10.0 | 0.00 | 0.00 | 0.00 | 87 | 1011.5 |
| 20260507032453 | 76 | 8 | 4.0 | 10.0 | 0.00 | 0.00 | 0.00 | 87 | 1011.4 |
| 20260507032220 | 76 | 12 | 4.0 | 12.0 | 0.00 | 0.00 | 0.00 | 87 | 1011.3 |
| 20260507031449 | 76 | 354 | 4.0 | 12.0 | 0.00 | 0.00 | 0.00 | 87 | 1011.3 |
| 20260507030946 | 76 | 21 | 3.0 | 10.0 | 0.00 | 0.00 | 0.00 | 87 | 1011.1 |
| 20260507030445 | 76 | 330 | 4.0 | 10.0 | 0.00 | 0.00 | 0.00 | 87 | 1011.0 |
| 20260507025921 | 76 | 14 | 5.0 | 10.0 | 0.00 | 0.00 | 0.00 | 87 | 1010.9 |
| 20260507025405 | 77 | 354 | 5.0 | 12.0 | 0.00 | 0.00 | 0.00 | 87 | 1010.8 |
| 20260507024830 | 77 | 318 | 4.0 | 9.0 | 0.00 | 0.00 | 0.00 | 87 | 1010.6 |
| 20260507024304 | 77 | 317 | 3.0 | 8.0 | 0.00 | 0.00 | 0.00 | 87 | 1010.4 |
| 20260507023800 | 77 | 324 | 3.0 | 12.0 | 0.00 | 0.00 | 0.00 | 87 | 1010.3 |
| 20260507022733 | 78 | 9 | 4.0 | 11.0 | 0.00 | 0.00 | 0.00 | 87 | 1010.0 |
| 20260507022233 | 78 | 350 | 3.0 | 9.0 | 0.00 | 0.00 | 0.00 | 87 | 1010.0 |
| 20260507021741 | 78 | 312 | 4.0 | 11.0 | 0.00 | 0.00 | 0.00 | 87 | 1010.0 |
| 20260507021235 | 78 | 10 | 4.0 | 11.0 | 0.00 | 0.00 | 0.00 | 87 | 1009.9 |
| 20260507020709 | 78 | 29 | 3.0 | 8.0 | 0.00 | 0.00 | 0.00 | 87 | 1009.8 |
| 20260507020142 | 79 | 39 | 3.0 | 10.0 | 0.00 | 0.00 | 0.00 | 87 | 1009.7 |
| 20260507015640 | 79 | 354 | 5.0 | 12.0 | 0.00 | 0.00 | 0.00 | 87 | 1009.7 |
| 20260507015111 | 79 | 344 | 6.0 | 13.0 | 0.00 | 0.00 | 0.00 | 87 | 1009.7 |
| 20260507014544 | 80 | 311 | 6.0 | 13.0 | 0.00 | 0.00 | 0.00 | 86 | 1009.6 |
| 20260507014041 | 81 | 302 | 6.0 | 13.0 | 0.00 | 0.00 | 0.00 | 86 | 1009.5 |
| 20260507013516 | 81 | 316 | 4.0 | 9.0 | 0.00 | 0.00 | 0.00 | 86 | 1009.2 |
| 20260507012948 | 82 | 289 | 2.0 | 9.0 | 0.00 | 0.00 | 0.00 | 88 | 1009.2 |
| 20260507012445 | 83 | 224 | 2.0 | 5.0 | 0.00 | 0.00 | 0.00 | 90 | 1008.9 |
| 20260507011919 | 83 | 223 | 2.0 | 6.0 | 0.00 | 0.00 | 0.00 | 90 | 1008.8 |
| 20260507011353 | 83 | 245 | 1.0 | 5.0 | 0.00 | 0.00 | 0.00 | 90 | 1008.8 |
| 20260507010826 | 83 | 193 | 1.0 | 4.0 | 0.00 | 0.00 | 0.00 | 89 | 1008.7 |
| 20260507010323 | 83 | 190 | 1.0 | 3.0 | 0.00 | 0.00 | 0.00 | 89 | 1008.6 |
| 20260507005759 | 83 | 191 | 2.0 | 5.0 | 0.00 | 0.00 | 0.00 | 89 | 1008.5 |
| 20260507005501 | 83 | 199 | 3.0 | 6.0 | 0.00 | 0.00 | 0.00 | 89 | 1008.3 |
| 20260507004731 | 83 | 166 | 3.0 | 7.0 | 0.00 | 0.00 | 0.00 | 89 | 1008.1 |
| 20260507004200 | 83 | 135 | 3.0 | 8.0 | 0.00 | 0.00 | 0.00 | 89 | 1008.1 |
| 20260507003659 | 83 | 194 | 4.0 | 9.0 | 0.00 | 0.00 | 0.00 | 89 | 1008.1 |
| 20260507003425 | 83 | 194 | 4.0 | 9.0 | 0.00 | 0.00 | 0.00 | 88 | 1008.0 |
| 20260507002652 | 83 | 194 | 3.0 | 8.0 | 0.00 | 0.00 | 0.00 | 88 | 1008.2 |
| 20260507002125 | 83 | 138 | 4.0 | 10.0 | 0.00 | 0.00 | 0.00 | 88 | 1008.2 |
| 20260507001852 | 84 | 165 | 4.0 | 10.0 | 0.00 | 0.00 | 0.00 | 88 | 1008.0 |
| 20260507001118 | 84 | 154 | 5.0 | 10.0 | 0.00 | 0.00 | 0.00 | 88 | 1008.0 |
| 20260507000549 | 84 | 194 | 5.0 | 10.0 | 0.00 | 0.00 | 0.00 | 88 | 1007.9 |
| 20260507000047 | 84 | 144 | 4.0 | 10.0 | 0.00 | 0.00 | 0.00 | 88 | 1007.9 |
| 20260506235521 | 84 | 173 | 3.0 | 8.0 | 0.00 | 0.00 | 0.00 | 87 | 1008.0 |
| 20260506234957 | 84 | 158 | 3.0 | 8.0 | 0.00 | 0.00 | 0.00 | 87 | 1008.0 |
| 20260506234431 | 84 | 148 | 4.0 | 8.0 | 0.00 | 0.00 | 0.00 | 87 | 1008.0 |
| 20260506233929 | 84 | 139 | 4.0 | 8.0 | 0.00 | 0.00 | 0.00 | 87 | 1007.9 |
| 20260506233403 | 85 | 171 | 5.0 | 9.0 | 0.00 | 0.00 | 0.00 | 87 | 1007.9 |
| 20260506232900 | 85 | 196 | 4.0 | 9.0 | 0.00 | 0.00 | 0.00 | 86 | 1007.8 |
| 20260506232357 | 85 | 199 | 5.0 | 10.0 | 0.00 | 0.00 | 0.00 | 86 | 1007.8 |
| 20260506231853 | 86 | 164 | 5.0 | 11.0 | 0.00 | 0.00 | 0.00 | 85 | 1007.7 |
| 20260506231600 | 86 | 174 | 4.0 | 11.0 | 0.00 | 0.00 | 0.00 | 84 | 1007.7 |
| 20260506230830 | 86 | 194 | 4.0 | 8.0 | 0.00 | 0.00 | 0.00 | 83 | 1007.7 |
| 20260506230304 | 86 | 114 | 4.0 | 10.0 | 0.00 | 0.00 | 0.00 | 83 | 1007.6 |
| 20260506230035 | 86 | 139 | 4.0 | 10.0 | 0.00 | 0.00 | 0.00 | 83 | 1007.6 |
| 20260506225244 | 87 | 210 | 5.0 | 10.0 | 0.00 | 0.00 | 0.00 | 82 | 1007.7 |
| 20260506224743 | 87 | 188 | 4.0 | 9.0 | 0.00 | 0.00 | 0.00 | 82 | 1007.5 |
| 20260506224222 | 87 | 182 | 4.0 | 10.0 | 0.00 | 0.00 | 0.00 | 83 | 1007.6 |
| 20260506223712 | 87 | 166 | 4.0 | 10.0 | 0.00 | 0.00 | 0.00 | 83 | 1007.5 |
| 20260506223210 | 87 | 172 | 4.0 | 10.0 | 0.00 | 0.00 | 0.00 | 83 | 1007.6 |
| 20260506222939 | 87 | 137 | 4.0 | 10.0 | 0.00 | 0.00 | 0.00 | 83 | 1007.5 |
| 20260506222213 | 87 | 172 | 3.0 | 9.0 | 0.00 | 0.00 | 0.00 | 82 | 1007.4 |
| 20260506221652 | 87 | 162 | 3.0 | 9.0 | 0.00 | 0.00 | 0.00 | 81 | 1007.5 |
| 20260506221132 | 87 | 151 | 4.0 | 10.0 | 0.00 | 0.00 | 0.00 | 82 | 1007.4 |
| 20260506220614 | 87 | 154 | 5.0 | 10.0 | 0.00 | 0.00 | 0.00 | 82 | 1007.5 |
| 20260506220552 | 87 | 115 | 5.0 | 10.0 | 0.00 | 0.00 | 0.00 | 83 | 1007.4 |
| 20260506215805 | 87 | 196 | 5.0 | 10.0 | 0.00 | 0.00 | 0.00 | 83 | 1007.5 |
| 20260506215033 | 87 | 212 | 5.0 | 10.0 | 0.00 | 0.00 | 0.00 | 82 | 1007.4 |
| 20260506214508 | 87 | 122 | 5.0 | 11.0 | 0.00 | 0.00 | 0.00 | 82 | 1007.3 |
| 20260506214009 | 87 | 185 | 5.0 | 12.0 | 0.00 | 0.00 | 0.00 | 81 | 1007.3 |
| 20260506213505 | 87 | 195 | 5.0 | 12.0 | 0.00 | 0.00 | 0.00 | 82 | 1007.3 |
| 20260506213006 | 87 | 161 | 6.0 | 12.0 | 0.00 | 0.00 | 0.00 | 83 | 1007.5 |
| 20260506212505 | 86 | 179 | 6.0 | 12.0 | 0.00 | 0.00 | 0.00 | 83 | 1007.5 |
| 20260506211942 | 87 | 193 | 5.0 | 12.0 | 0.00 | 0.00 | 0.00 | 82 | 1007.6 |
| 20260506211419 | 87 | 159 | 5.0 | 12.0 | 0.00 | 0.00 | 0.00 | 83 | 1007.6 |
| 20260506210855 | 87 | 198 | 5.0 | 12.0 | 0.00 | 0.00 | 0.00 | 82 | 1007.7 |
| 20260506210601 | 87 | 246 | 5.0 | 10.0 | 0.00 | 0.00 | 0.00 | 83 | 1007.7 |
| 20260506205802 | 87 | 142 | 5.0 | 10.0 | 0.00 | 0.00 | 0.00 | 83 | 1007.8 |
| 20260506205236 | 87 | 203 | 4.0 | 9.0 | 0.00 | 0.00 | 0.00 | 83 | 1007.8 |
| 20260506204710 | 86 | 154 | 4.0 | 8.0 | 0.00 | 0.00 | 0.00 | 84 | 1007.8 |
| 20260506204151 | 86 | 181 | 5.0 | 12.0 | 0.00 | 0.00 | 0.00 | 85 | 1007.8 |
| 20260506203641 | 85 | 196 | 5.0 | 12.0 | 0.00 | 0.00 | 0.00 | 85 | 1007.8 |
| 20260506203136 | 85 | 141 | 4.0 | 8.0 | 0.00 | 0.00 | 0.00 | 85 | 1007.9 |
| 20260506202612 | 86 | 157 | 4.0 | 8.0 | 0.00 | 0.00 | 0.00 | 85 | 1008.0 |
| 20260506202049 | 86 | 191 | 5.0 | 11.0 | 0.00 | 0.00 | 0.00 | 84 | 1008.0 |
| 20260506201539 | 86 | 235 | 5.0 | 11.0 | 0.00 | 0.00 | 0.00 | 83 | 1008.0 |
| 20260506201042 | 86 | 162 | 4.0 | 9.0 | 0.00 | 0.00 | 0.00 | 83 | 1008.1 |
| 20260506200508 | 86 | 109 | 3.0 | 8.0 | 0.00 | 0.00 | 0.00 | 84 | 1008.1 |
| 20260506195943 | 86 | 165 | 4.0 | 12.0 | 0.00 | 0.00 | 0.00 | 84 | 1008.2 |
| 20260506195414 | 86 | 143 | 5.0 | 13.0 | 0.00 | 0.00 | 0.00 | 84 | 1008.2 |
| 20260506194916 | 86 | 162 | 5.0 | 13.0 | 0.00 | 0.00 | 0.00 | 83 | 1008.3 |
| 20260506194356 | 86 | 210 | 6.0 | 15.0 | 0.00 | 0.00 | 0.00 | 83 | 1008.3 |
| 20260506193819 | 87 | 139 | 5.0 | 15.0 | 0.00 | 0.00 | 0.00 | 81 | 1008.3 |
| 20260506193550 | 88 | 191 | 4.0 | 10.0 | 0.00 | 0.00 | 0.00 | 80 | 1008.3 |
| 20260506192749 | 88 | 185 | 4.0 | 10.0 | 0.00 | 0.00 | 0.00 | 80 | 1008.4 |
| 20260506192517 | 88 | 219 | 3.0 | 8.0 | 0.00 | 0.00 | 0.00 | 80 | 1008.4 |
| 20260506191743 | 87 | 216 | 3.0 | 8.0 | 0.00 | 0.00 | 0.00 | 81 | 1008.5 |
| 20260506191215 | 87 | 162 | 3.0 | 9.0 | 0.00 | 0.00 | 0.00 | 82 | 1008.5 |
| 20260506190712 | 86 | 246 | 4.0 | 10.0 | 0.00 | 0.00 | 0.00 | 82 | 1008.6 |
| 20260506190209 | 86 | 210 | 4.0 | 10.0 | 0.00 | 0.00 | 0.00 | 82 | 1008.7 |
| 20260506185937 | 87 | 228 | 4.0 | 9.0 | 0.00 | 0.00 | 0.00 | 82 | 1008.8 |
| 20260506185140 | 87 | 218 | 4.0 | 10.0 | 0.00 | 0.00 | 0.00 | 82 | 1008.8 |
| 20260506184636 | 87 | 161 | 4.0 | 10.0 | 0.00 | 0.00 | 0.00 | 81 | 1008.9 |
| 20260506184133 | 87 | 139 | 4.0 | 10.0 | 0.00 | 0.00 | 0.00 | 82 | 1009.0 |
| 20260506183902 | 86 | 120 | 3.0 | 8.0 | 0.00 | 0.00 | 0.00 | 83 | 1009.0 |
| 20260506183128 | 86 | 169 | 3.0 | 8.0 | 0.00 | 0.00 | 0.00 | 83 | 1009.1 |
| 20260506182623 | 85 | 134 | 4.0 | 8.0 | 0.00 | 0.00 | 0.00 | 84 | 1009.2 |
| 20260506182059 | 85 | 186 | 4.0 | 8.0 | 0.00 | 0.00 | 0.00 | 84 | 1009.3 |
| 20260506181805 | 85 | 149 | 4.0 | 8.0 | 0.00 | 0.00 | 0.00 | 85 | 1009.4 |
| 20260506181027 | 85 | 171 | 4.0 | 8.0 | 0.00 | 0.00 | 0.00 | 85 | 1009.4 |
| 20260506180525 | 85 | 249 | 3.0 | 7.0 | 0.00 | 0.00 | 0.00 | 85 | 1009.6 |
| 20260506175958 | 84 | 158 | 3.0 | 7.0 | 0.00 | 0.00 | 0.00 | 85 | 1009.7 |
| 20260506175431 | 84 | 197 | 3.0 | 7.0 | 0.00 | 0.00 | 0.00 | 85 | 1009.7 |
| 20260506174929 | 84 | 196 | 3.0 | 7.0 | 0.00 | 0.00 | 0.00 | 86 | 1009.8 |
| 20260506174401 | 84 | 164 | 4.0 | 9.0 | 0.00 | 0.00 | 0.00 | 86 | 1009.9 |
| 20260506173857 | 84 | 184 | 4.0 | 9.0 | 0.00 | 0.00 | 0.00 | 86 | 1010.0 |
| 20260506173627 | 84 | 187 | 4.0 | 10.0 | 0.00 | 0.00 | 0.00 | 87 | 1010.0 |
| 20260506172853 | 83 | 152 | 4.0 | 10.0 | 0.00 | 0.00 | 0.00 | 88 | 1010.1 |
| 20260506172327 | 83 | 197 | 4.0 | 9.0 | 0.00 | 0.00 | 0.00 | 88 | 1010.1 |
| 20260506171758 | 83 | 161 | 4.0 | 10.0 | 0.00 | 0.00 | 0.00 | 88 | 1010.1 |
| 20260506171256 | 83 | 152 | 5.0 | 10.0 | 0.00 | 0.00 | 0.00 | 90 | 1010.1 |
| 20260506170752 | 82 | 122 | 5.0 | 10.0 | 0.00 | 0.00 | 0.00 | 91 | 1010.2 |
| 20260506170225 | 82 | 146 | 4.0 | 9.0 | 0.00 | 0.00 | 0.00 | 91 | 1010.2 |
| 20260506165723 | 82 | 153 | 3.0 | 9.0 | 0.00 | 0.00 | 0.00 | 91 | 1010.4 |
| 20260506165159 | 82 | 139 | 3.0 | 8.0 | 0.00 | 0.00 | 0.00 | 91 | 1010.4 |
| 20260506164633 | 82 | 106 | 3.0 | 8.0 | 0.00 | 0.00 | 0.00 | 91 | 1010.3 |
| 20260506164108 | 81 | 137 | 4.0 | 10.0 | 0.00 | 0.00 | 0.00 | 91 | 1010.3 |
| 20260506163546 | 81 | 179 | 4.0 | 10.0 | 0.00 | 0.00 | 0.00 | 91 | 1010.3 |
| 20260506163048 | 81 | 141 | 4.0 | 9.0 | 0.00 | 0.00 | 0.00 | 92 | 1010.2 |
| 20260506162528 | 81 | 156 | 2.0 | 9.0 | 0.00 | 0.00 | 0.00 | 92 | 1010.1 |
| 20260506162006 | 81 | 108 | 2.0 | 8.0 | 0.00 | 0.00 | 0.00 | 93 | 1010.1 |
| 20260506161455 | 80 | 148 | 3.0 | 8.0 | 0.00 | 0.00 | 0.00 | 92 | 1009.9 |
| 20260506161225 | 80 | 174 | 3.0 | 8.0 | 0.00 | 0.00 | 0.00 | 92 | 1010.1 |
| 20260506160444 | 80 | 130 | 3.0 | 8.0 | 0.00 | 0.00 | 0.00 | 92 | 1010.0 |
| 20260506155941 | 81 | 136 | 3.0 | 8.0 | 0.00 | 0.00 | 0.00 | 91 | 1010.0 |
| 20260506155439 | 81 | 144 | 3.0 | 8.0 | 0.00 | 0.00 | 0.00 | 91 | 1009.9 |
| 20260506154939 | 81 | 149 | 3.0 | 7.0 | 0.00 | 0.00 | 0.00 | 91 | 1009.9 |
| 20260506154443 | 81 | 173 | 2.0 | 7.0 | 0.00 | 0.00 | 0.00 | 91 | 1009.8 |
| 20260506153920 | 81 | 131 | 2.0 | 7.0 | 0.00 | 0.00 | 0.00 | 91 | 1009.8 |
| 20260506153648 | 81 | 127 | 3.0 | 7.0 | 0.00 | 0.00 | 0.00 | 91 | 1009.9 |
| 20260506152918 | 81 | 172 | 3.0 | 10.0 | 0.00 | 0.00 | 0.00 | 91 | 1009.7 |
| 20260506152353 | 81 | 169 | 3.0 | 8.0 | 0.00 | 0.00 | 0.00 | 91 | 1009.6 |
| 20260506152126 | 80 | 189 | 3.0 | 7.0 | 0.00 | 0.00 | 0.00 | 92 | 1009.5 |
| 20260506151327 | 80 | 138 | 4.0 | 8.0 | 0.00 | 0.00 | 0.00 | 92 | 1009.5 |
| 20260506150803 | 80 | 127 | 3.0 | 10.0 | 0.00 | 0.00 | 0.00 | 92 | 1009.5 |
| 20260506150304 | 80 | 137 | 3.0 | 10.0 | 0.00 | 0.00 | 0.00 | 92 | 1009.3 |
| 20260506150018 | 80 | 169 | 4.0 | 9.0 | 0.00 | 0.00 | 0.00 | 92 | 1009.3 |
| 20260506145244 | 80 | 141 | 4.0 | 9.0 | 0.00 | 0.00 | 0.00 | 92 | 1009.2 |
| 20260506144951 | 80 | 154 | 4.0 | 8.0 | 0.00 | 0.00 | 0.00 | 93 | 1009.1 |
| 20260506144154 | 80 | 167 | 4.0 | 9.0 | 0.00 | 0.00 | 0.00 | 93 | 1009.0 |
| 20260506143921 | 80 | 142 | 4.0 | 9.0 | 0.00 | 0.00 | 0.00 | 93 | 1009.0 |
| 20260506143145 | 80 | 177 | 5.0 | 14.0 | 0.00 | 0.00 | 0.00 | 94 | 1009.0 |
| 20260506142619 | 79 | 137 | 6.0 | 14.0 | 0.00 | 0.00 | 0.00 | 94 | 1008.9 |
| 20260506142118 | 79 | 148 | 5.0 | 12.0 | 0.00 | 0.00 | 0.00 | 94 | 1008.9 |
| 20260506141550 | 79 | 146 | 5.0 | 10.0 | 0.00 | 0.00 | 0.00 | 95 | 1009.0 |
| 20260506141048 | 79 | 157 | 5.0 | 10.0 | 0.00 | 0.00 | 0.00 | 95 | 1009.1 |
| 20260506140520 | 79 | 114 | 4.0 | 10.0 | 0.00 | 0.00 | 0.00 | 96 | 1009.1 |
| 20260506140017 | 79 | 139 | 4.0 | 9.0 | 0.00 | 0.00 | 0.00 | 96 | 1009.1 |
| 20260506135450 | 78 | 166 | 4.0 | 9.0 | 0.00 | 0.00 | 0.00 | 97 | 1009.1 |
| 20260506134947 | 78 | 136 | 4.0 | 9.0 | 0.00 | 0.00 | 0.00 | 97 | 1009.2 |
| 20260506134421 | 78 | 127 | 3.0 | 8.0 | 0.00 | 0.00 | 0.00 | 97 | 1009.2 |
| 20260506133918 | 78 | 131 | 3.0 | 8.0 | 0.00 | 0.00 | 0.00 | 97 | 1009.2 |
| 20260506133350 | 78 | 158 | 2.0 | 8.0 | 0.00 | 0.00 | 0.00 | 98 | 1009.2 |
| 20260506132848 | 78 | 126 | 1.0 | 5.0 | 0.00 | 0.00 | 0.00 | 98 | 1009.3 |
| 20260506132320 | 78 | 126 | 2.0 | 5.0 | 0.00 | 0.00 | 0.00 | 98 | 1009.3 |
| 20260506131818 | 77 | 129 | 2.0 | 8.0 | 0.00 | 0.00 | 0.00 | 98 | 1009.2 |
| 20260506131314 | 77 | 125 | 2.0 | 8.0 | 0.00 | 0.00 | 0.00 | 98 | 1009.3 |
| 20260506130811 | 77 | 178 | 2.0 | 7.0 | 0.00 | 0.00 | 0.00 | 98 | 1009.4 |
| 20260506130244 | 77 | 133 | 2.0 | 7.0 | 0.00 | 0.00 | 0.00 | 99 | 1009.4 |
| 20260506130013 | 77 | 133 | 2.0 | 5.0 | 0.00 | 0.00 | 0.00 | 99 | 1009.4 |
| 20260506125214 | 77 | 135 | 2.0 | 5.0 | 0.00 | 0.00 | 0.00 | 99 | 1009.3 |
| 20260506124711 | 77 | 146 | 1.0 | 4.0 | 0.00 | 0.00 | 0.00 | 99 | 1009.3 |
| 20260506124650 | 77 | 168 | 1.0 | 9.0 | 0.00 | 0.00 | 0.00 | 99 | 1009.3 |
| 20260506123641 | 77 | 172 | 3.0 | 9.0 | 0.00 | 0.00 | 0.00 | 99 | 1009.2 |
| 20260506123115 | 77 | 141 | 3.0 | 9.0 | 0.00 | 0.00 | 0.00 | 99 | 1009.2 |
| 20260506122612 | 77 | 127 | 3.0 | 9.0 | 0.00 | 0.00 | 0.00 | 99 | 1009.2 |
| 20260506122108 | 77 | 141 | 2.0 | 7.0 | 0.00 | 0.00 | 0.00 | 99 | 1009.1 |
| 20260506121837 | 77 | 155 | 2.0 | 5.0 | 0.00 | 0.00 | 0.00 | 99 | 1009.0 |
| 20260506121038 | 76 | 158 | 1.0 | 5.0 | 0.00 | 0.00 | 0.00 | 99 | 1008.9 |
| 20260506120535 | 76 | 127 | 2.0 | 6.0 | 0.00 | 0.00 | 0.00 | 99 | 1008.8 |
| 20260506120016 | 76 | 171 | 2.0 | 7.0 | 0.00 | 0.00 | 0.00 | 99 | 1008.8 |
| 20260506115506 | 76 | 160 | 2.0 | 7.0 | 0.00 | 0.00 | 0.00 | 99 | 1008.7 |
| 20260506114940 | 76 | 152 | 3.0 | 11.0 | 0.00 | 0.00 | 0.00 | 99 | 1008.6 |
| 20260506114415 | 76 | 151 | 4.0 | 11.0 | 0.00 | 0.00 | 0.00 | 99 | 1008.5 |
| 20260506113844 | 76 | 163 | 4.0 | 10.0 | 0.00 | 0.00 | 0.00 | 99 | 1008.5 |
| 20260506113341 | 76 | 149 | 4.0 | 8.0 | 0.00 | 0.00 | 0.00 | 99 | 1008.4 |
| 20260506112814 | 76 | 162 | 3.0 | 8.0 | 0.00 | 0.00 | 0.00 | 99 | 1008.3 |
| 20260506112311 | 76 | 177 | 3.0 | 8.0 | 0.00 | 0.00 | 0.00 | 99 | 1008.3 |
| 20260506111745 | 76 | 122 | 3.0 | 8.0 | 0.00 | 0.00 | 0.00 | 99 | 1008.2 |
| 20260506111224 | 76 | 135 | 3.0 | 10.0 | 0.00 | 0.00 | 0.00 | 99 | 1008.1 |
| 20260506110721 | 76 | 185 | 3.0 | 10.0 | 0.00 | 0.00 | 0.00 | 99 | 1008.1 |
| 20260506110157 | 76 | 183 | 4.0 | 10.0 | 0.00 | 0.00 | 0.00 | 99 | 1008.1 |
| 20260506105655 | 76 | 182 | 4.0 | 10.0 | 0.00 | 0.00 | 0.00 | 99 | 1008.0 |
| 20260506105157 | 76 | 140 | 4.0 | 10.0 | 0.00 | 0.00 | 0.00 | 99 | 1007.9 |
| 20260506104657 | 76 | 133 | 4.0 | 9.0 | 0.00 | 0.00 | 0.00 | 99 | 1007.9 |
| 20260506104137 | 76 | 147 | 4.0 | 8.0 | 0.00 | 0.00 | 0.00 | 99 | 1007.9 |
| 20260506103636 | 76 | 170 | 4.0 | 9.0 | 0.00 | 0.00 | 0.00 | 99 | 1008.0 |
| 20260506103119 | 76 | 156 | 4.0 | 9.0 | 0.00 | 0.00 | 0.00 | 99 | 1007.9 |
| 20260506102559 | 76 | 131 | 4.0 | 9.0 | 0.00 | 0.00 | 0.00 | 99 | 1007.9 |
| 20260506102057 | 76 | 156 | 4.0 | 9.0 | 0.00 | 0.00 | 0.00 | 99 | 1007.9 |
| 20260506101558 | 76 | 133 | 4.0 | 12.0 | 0.00 | 0.00 | 0.00 | 99 | 1007.9 |
| 20260506101057 | 76 | 174 | 4.0 | 12.0 | 0.00 | 0.00 | 0.00 | 98 | 1007.8 |
| 20260506100555 | 76 | 148 | 5.0 | 12.0 | 0.00 | 0.00 | 0.00 | 98 | 1007.9 |
| 20260506100030 | 76 | 168 | 5.0 | 12.0 | 0.00 | 0.00 | 0.00 | 98 | 1007.9 |
| 20260506095743 | 76 | 145 | 5.0 | 11.0 | 0.00 | 0.00 | 0.00 | 98 | 1007.8 |
| 20260506095017 | 76 | 180 | 4.0 | 11.0 | 0.00 | 0.00 | 0.00 | 98 | 1007.7 |
| 20260506094452 | 76 | 178 | 3.0 | 8.0 | 0.00 | 0.00 | 0.00 | 98 | 1007.7 |
| 20260506093956 | 76 | 144 | 3.0 | 7.0 | 0.00 | 0.00 | 0.00 | 97 | 1007.7 |
| 20260506093935 | 76 | 142 | 3.0 | 8.0 | 0.00 | 0.00 | 0.00 | 97 | 1007.8 |
| 20260506092913 | 76 | 154 | 3.0 | 8.0 | 0.00 | 0.00 | 0.00 | 97 | 1007.7 |
| 20260506092850 | 76 | 170 | 2.0 | 8.0 | 0.00 | 0.00 | 0.00 | 97 | 1007.7 |
| 20260506092115 | 77 | 153 | 2.0 | 6.0 | 0.00 | 0.00 | 0.00 | 97 | 1007.8 |
| 20260506091317 | 77 | 161 | 2.0 | 6.0 | 0.00 | 0.00 | 0.00 | 97 | 1007.9 |
| 20260506090752 | 77 | 164 | 4.0 | 9.0 | 0.00 | 0.00 | 0.00 | 96 | 1007.9 |
| 20260506090253 | 77 | 161 | 4.0 | 9.0 | 0.00 | 0.00 | 0.00 | 96 | 1008.0 |
| 20260506090245 | 77 | 147 | 4.0 | 9.0 | 0.00 | 0.00 | 0.00 | 96 | 1008.0 |
| 20260506085239 | 77 | 166 | 4.0 | 10.0 | 0.00 | 0.00 | 0.00 | 96 | 1008.0 |
| 20260506084735 | 77 | 118 | 4.0 | 10.0 | 0.00 | 0.00 | 0.00 | 96 | 1008.1 |
| 20260506084212 | 77 | 198 | 3.0 | 8.0 | 0.00 | 0.00 | 0.00 | 96 | 1008.1 |
| 20260506083644 | 77 | 199 | 3.0 | 8.0 | 0.00 | 0.00 | 0.00 | 96 | 1008.1 |
| 20260506083119 | 77 | 156 | 3.0 | 8.0 | 0.00 | 0.00 | 0.00 | 96 | 1008.3 |
| 20260506083054 | 77 | 177 | 3.0 | 10.0 | 0.00 | 0.00 | 0.00 | 96 | 1008.2 |
| 20260506082048 | 77 | 150 | 3.0 | 10.0 | 0.00 | 0.00 | 0.00 | 96 | 1008.2 |
| 20260506081535 | 77 | 156 | 3.0 | 10.0 | 0.00 | 0.00 | 0.00 | 96 | 1008.3 |
| 20260506081032 | 77 | 154 | 4.0 | 10.0 | 0.00 | 0.00 | 0.00 | 96 | 1008.4 |
| 20260506080505 | 77 | 114 | 4.0 | 12.0 | 0.00 | 0.00 | 0.00 | 96 | 1008.3 |
| 20260506073316 | 78 | 178 | 4.0 | 10.0 | 0.00 | 0.00 | 0.00 | 95 | 1008.5 |
| 20260506073046 | 78 | 131 | 3.0 | 8.0 | 0.00 | 0.00 | 0.00 | 95 | 1008.5 |
| 20260506072314 | 78 | 118 | 4.0 | 8.0 | 0.00 | 0.00 | 0.00 | 95 | 1008.7 |
| 20260506071813 | 78 | 218 | 3.0 | 8.0 | 0.00 | 0.00 | 0.00 | 95 | 1008.7 |
| 20260506071313 | 78 | 154 | 3.0 | 9.0 | 0.00 | 0.00 | 0.00 | 95 | 1008.7 |
| 20260506070811 | 78 | 179 | 3.0 | 9.0 | 0.00 | 0.00 | 0.00 | 95 | 1008.7 |
| 20260506070310 | 78 | 159 | 4.0 | 14.0 | 0.00 | 0.00 | 0.00 | 95 | 1008.8 |
| 20260506062054 | 78 | 142 | 3.0 | 7.0 | 0.00 | 0.00 | 0.00 | 95 | 1009.0 |
| 20260506061551 | 78 | 173 | 3.0 | 8.0 | 0.00 | 0.00 | 0.00 | 95 | 1009.0 |
| 20260506061047 | 78 | 163 | 3.0 | 8.0 | 0.00 | 0.00 | 0.00 | 95 | 1009.0 |
| 20260506060545 | 78 | 168 | 4.0 | 13.0 | 0.00 | 0.00 | 0.00 | 95 | 1009.1 |